FLOCK 3P-19

Last updated on Wed Feb 14 2018 16:20:18 GMT+0000 (Coordinated Universal Time)

1 41955U 17008H 18044.74025710 .00002022 00000-0 86586-4 0 9996 2 41955 97.4652 110.1738 0010572 70.6415 289.5964 15.23916962 55229
UTC large
Height (km)
Speed (km/s)
/
Latitude / Longitude
Inclination (degrees)
Orbital Period (minutes)
Azimuth
Elevation
Range (km)
Doppler Factor

Next 0 passes for location: London (51.5072 / 0.1276)

Sorry there are no passes over London.